Regional Weather Roundup
Issued by NWS

Home | Current Version | Previous Version | Text Only | Print | Product List | Glossary On
Versions: 1 2 3 4 5 6 7 8 9 10 11 12 13 14 15 16 17 18 19 20 21 22 23 24 25 26 27 28 29 30 31 32 33 34 35 36 37 38 39 40 41 42 43 44 45 46 47 48 49 50
000
ASUS43 KFSD 160002
RWRSD

WEATHER ROUNDUP FOR SOUTH DAKOTA
NATIONAL WEATHER SERVICE SIOUX FALLS SD
600 PM CST FRI DEC 15 2017

NOTE: "FAIR" INDICATES FEW OR NO CLOUDS BELOW 12,000 FEET WITH NO
SIGNIFICANT WEATHER AND/OR OBSTRUCTIONS TO VISIBILITY.


SDZ001>005-009-010-012>017-160100-
NORTHWEST AND NORTH CENTRAL SOUTH DAKOTA

CITY           SKY/WX    TMP DP  RH WIND       PRES   REMARKS
BUFFALO          N/A     42  20  41 W15       29.56F
FAITH            N/A     44  21  40 W12       29.62S
MOBRIDGE       CLOUDY    37  27  67 CALM      29.55F
$$

SDZ012>016-024>037-041>051-057-063-072>074-160100-
SOUTHWEST AND SOUTH CENTRAL SOUTH DAKOTA

CITY           SKY/WX    TMP DP  RH WIND       PRES   REMARKS
RAPID CTY ARPT CLOUDY    43  16  33 E3        29.67F
PIERRE         CLOUDY    45  26  47 W9        29.62S
CUSTER         CLOUDY    41  14  33 W9        29.73F
ELLSWORTH AFB  CLOUDY    46  16  29 CALM      29.66F
PHILIP         CLOUDY    41  24  51 NW5       29.65S
PINE RIDGE     CLOUDY    39  20  46 SW6       29.72F
SPEARFISH      FAIR      54  12  19 W16       29.68F
WINNER         FAIR      44  31  60 SW12      29.67F
$$

SDZ004>011-016>023-039-040-160100-
NORTHEAST SOUTH DAKOTA

CITY           SKY/WX    TMP DP  RH WIND       PRES   REMARKS
ABERDEEN       CLOUDY    37  25  61 SW8       29.60S
WATERTOWN      CLOUDY    34  29  82 S9        29.60F WCI  27
BROOKINGS        N/A     36  26  67 S10       29.65F
SISSETON         N/A     34  31  88 SE8       29.61F WCI  27
$$

SDZ017-020-022-023-036>040-048>070-160100-
SOUTHEAST SOUTH DAKOTA

CITY           SKY/WX    TMP DP  RH WIND       PRES   REMARKS
SIOUX FALLS    CLOUDY    35  26  69 S7        29.69F WCI  29
HURON          CLOUDY    38  27  64 S6        29.64F
CHAMBERLAIN    CLOUDY    45  32  61 SW10      29.65F
MITCHELL       CLOUDY    42  28  57 SW9       29.66F
YANKTON        CLOUDY    43  27  53 SW10      29.71S
$$

ABBREVIATIONS USED IN REMARKS
   TC - TEMPERATURE IN CELSIUS
  WCI - WIND CHILL INDEX
   HX - HEAT INDEX
  VSB - VISIBILITY





USA.gov is the U.S. government's official web portal to all federal, state and local government web resources and services.